Find GalileoSat-1

NORAD ID: 37846 Int'l Des: 2011-060 Owner: ESA/GSAEU Country: I-ESA Constellation: Galileo operational
MEOCIRCULAR

リアルタイム位置

3D地球を読み込み中...

GalileoSat-1について

説明を読み込み中...

次回通過

Passes for default location (London). Set your location on the main map for personalized predictions.

高度履歴

Loading altitude history...

軌道要素

1 37846U 11060A 26106.84366096 -.00000064 00000-0 00000-0 0 9994
2 37846 57.0131 343.4263 0004029 24.2702 335.8054 1.70475623 90073
Epoch: Apr 16, 2026 • Age: 21 hours

現在のステータス

高度 23231.9 km
速度 3.67 km/s
衛星直下点 6.04°N, 57.45°E
打ち上げ日 Oct 21, 2011
運用期間 14.4 years
タイプ navigation

技術仕様

分類 Payload
質量 700.00 kg
乾燥質量 700.00 kg
総質量 700.00 kg
長さ 2.70 m
直径 1.60 m
スパン 14.50 m
形状 Box + 2 Pan
製造者 EADSB/THALR
バスタイプ GalileoSat
フェーズステータス In Orbit
所有者/国 ESA/GSAEU/I-ESA

Most Searched